Date String (YYYY-MM-DD hh:mm:ss) UTC,Instrument flags,Ambient pressure (hPa),Sample flow (lpm),Bypass flow (lpm),Sample temperature (°C),Ambient temperature (°C),ASC tube jacket temperature (°C),LED temperature (°C),Box temperature (°C),Sample RH (%),Span deviation,Mass concentration (μg/m³),Mass concentration (μg/m³),Mass concentration (μg/m³)
DateTimeUTC,F1_M11,P_M11,Q1_M11,Q2_M11,T1_M11,T2_M11,T3_M11,T4_M11,T5_M11,U1_M11,ZSPAN_M11,X0_M11,X2_M11,X1_M11
2023-02-23 05:00:00,,0814.7,4.97,0.00,22.6,22.0,00.0,31.3,24.2,03.5,0000.0,0003.62,0002.68,0002.31
2023-02-23 05:01:00,,0814.9,5.00,0.00,22.7,22.8,00.0,31.3,24.5,03.5,0000.0,0003.61,0002.65,0002.28
2023-02-23 05:02:00,,0814.9,5.01,0.00,22.8,23.1,00.0,31.4,24.5,03.5,0000.0,0003.54,0002.63,0002.28
2023-02-23 05:03:00,,0814.9,5.00,0.00,22.7,22.4,00.0,31.4,24.4,03.5,0000.0,0003.72,0002.68,0002.28
2023-02-23 05:04:00,,0814.8,5.00,0.00,22.7,21.7,00.0,31.4,24.2,03.5,0000.0,0003.78,0002.71,0002.29
2023-02-23 05:05:00,,0814.9,5.00,0.00,22.6,21.2,00.0,31.4,24.0,03.5,0000.0,0003.82,0002.74,0002.30
2023-02-23 05:06:00,,0814.9,4.99,0.00,22.5,20.7,00.0,31.3,23.9,03.5,0000.0,0003.90,0002.78,0002.32
2023-02-23 05:07:00,,0814.9,5.01,0.00,22.4,20.9,00.0,31.3,23.9,03.5,0000.0,0003.94,0002.81,0002.33
2023-02-23 05:08:00,,0815.1,4.97,0.00,22.5,21.9,00.0,31.3,24.2,03.5,0000.0,0003.92,0002.81,0002.35
2023-02-23 05:09:00,,0815.2,5.03,0.00,22.6,22.9,00.0,31.3,24.5,03.5,0000.0,0003.91,0002.83,0002.37
2023-02-23 05:10:00,,0815.2,5.05,0.00,22.7,23.2,00.0,31.3,24.6,03.5,0000.0,0004.08,0002.86,0002.38
2023-02-23 05:11:00,,0815.2,5.02,0.00,22.7,22.6,00.0,31.4,24.4,03.5,0000.0,0004.11,0002.89,0002.42
2023-02-23 05:12:00,,0815.1,5.00,0.00,22.7,21.9,00.0,31.4,24.3,03.5,0000.0,0004.15,0002.93,0002.45
2023-02-23 05:13:00,,0815.2,4.99,0.00,22.6,21.4,00.0,31.4,24.1,03.5,0000.0,0004.25,0002.98,0002.49
2023-02-23 05:14:00,,0815.0,5.00,0.00,22.5,21.0,00.0,31.3,24.0,03.5,0000.0,0004.23,0003.01,0002.50
2023-02-23 05:15:00,,0815.2,4.99,0.00,22.5,20.6,00.0,31.3,23.8,03.5,0000.0,0004.25,0003.06,0002.55
2023-02-23 05:16:00,,0815.4,5.00,0.00,22.4,20.8,00.0,31.3,23.9,03.5,0000.0,0004.37,0003.11,0002.58
2023-02-23 05:17:00,,0815.1,5.00,0.00,22.5,21.9,00.0,31.3,24.2,03.5,0000.0,0004.31,0003.10,0002.59
2023-02-23 05:18:00,,0815.2,5.00,0.00,22.6,22.7,00.0,31.3,24.4,03.5,0000.0,0004.36,0003.07,0002.58
2023-02-23 05:19:00,,0815.2,4.99,0.00,22.7,23.2,00.0,31.3,24.6,03.5,0000.0,0004.46,0003.09,0002.60
2023-02-23 05:20:00,,0815.2,4.98,0.00,22.7,22.5,00.0,31.3,24.4,03.5,0000.0,0004.57,0003.12,0002.62
2023-02-23 05:21:00,,0815.1,4.99,0.00,22.7,21.9,00.0,31.3,24.2,03.5,0000.0,0004.49,0003.13,0002.64
2023-02-23 05:22:00,,0815.5,5.01,0.00,22.6,21.3,00.0,31.3,24.1,03.5,0000.0,0004.48,0003.14,0002.65
2023-02-23 05:23:00,,0815.4,5.00,0.00,22.5,20.8,00.0,31.3,23.9,03.5,0000.0,0004.57,0003.16,0002.66
2023-02-23 05:24:00,,0815.4,5.01,0.00,22.4,20.5,00.0,31.3,23.8,03.5,0000.0,0004.90,0003.16,0002.66
2023-02-23 05:25:00,,0815.3,5.01,0.00,22.4,21.3,00.0,31.3,24.0,03.5,0000.0,0004.90,0003.13,0002.66
2023-02-23 05:26:00,,0815.3,5.00,0.00,22.5,22.3,00.0,31.3,24.2,03.5,0000.0,0004.85,0003.11,0002.63
2023-02-23 05:27:00,,0815.3,4.98,0.00,22.6,23.2,00.0,31.3,24.5,03.5,0000.0,0004.77,0003.09,0002.60
2023-02-23 05:28:00,,0815.3,5.00,0.00,22.7,23.7,00.0,31.3,24.7,03.4,0000.0,0004.76,0003.09,0002.61
2023-02-23 05:29:00,,0815.3,5.00,0.00,22.8,22.9,00.0,31.3,24.5,03.4,0000.0,0004.78,0003.12,0002.65
2023-02-23 05:30:00,,0815.4,5.00,0.00,22.7,22.2,00.0,31.4,24.3,03.4,0000.0,0004.74,0003.13,0002.66
2023-02-23 05:31:00,,0815.3,5.02,0.00,22.7,21.6,00.0,31.4,24.2,03.4,0000.0,0004.64,0003.12,0002.66
2023-02-23 05:32:00,,0815.4,4.99,0.00,22.6,21.2,00.0,31.4,24.1,03.5,0000.0,0004.65,0003.12,0002.68
2023-02-23 05:33:00,,0815.5,5.00,0.00,22.5,20.8,00.0,31.4,24.0,03.5,0000.0,0005.30,0003.11,0002.67
2023-02-23 05:34:00,,0815.4,5.01,0.00,22.5,20.8,00.0,31.3,23.9,03.5,0000.0,0005.35,0003.12,0002.69
2023-02-23 05:35:00,,0815.3,5.00,0.00,22.5,21.8,00.0,31.3,24.2,03.5,0000.0,0005.03,0003.12,0002.72
2023-02-23 05:36:00,,0815.4,5.01,0.00,22.7,22.7,00.0,31.3,24.5,03.5,0000.0,0004.98,0003.15,0002.75
2023-02-23 05:37:00,,0815.8,4.99,0.00,22.7,23.2,00.0,31.3,24.6,03.4,0000.0,0005.10,0003.19,0002.80
2023-02-23 05:38:00,,0816.1,4.97,0.00,22.8,22.7,00.0,31.4,24.5,03.4,0000.0,0005.24,0003.22,0002.85
2023-02-23 05:39:00,,0816.1,5.00,0.00,22.7,22.1,00.0,31.4,24.3,03.4,0000.0,0005.38,0003.25,0002.89
2023-02-23 05:40:00,,0816.0,4.99,0.00,22.7,21.5,00.0,31.4,24.2,03.4,0000.0,0005.43,0003.28,0002.92
2023-02-23 05:41:00,,0815.8,5.01,0.00,22.6,21.0,00.0,31.4,24.0,03.4,0000.0,0005.40,0003.28,0002.94
2023-02-23 05:42:00,,0816.0,5.00,0.00,22.5,20.7,00.0,31.4,23.9,03.5,0000.0,0005.64,0003.33,0002.99
2023-02-23 05:43:00,,0816.1,5.00,0.00,22.4,20.7,00.0,31.3,23.9,03.5,0000.0,0005.69,0003.33,0003.00
2023-02-23 05:44:00,,0815.5,4.98,0.00,22.5,21.6,00.0,31.3,24.1,03.4,0000.0,0005.28,0003.35,0003.00
2023-02-23 05:45:00,,0815.5,5.02,0.00,22.6,22.5,00.0,31.3,24.4,03.4,0000.0,0005.09,0003.35,0003.02
2023-02-23 05:46:00,,0816.1,4.98,0.00,22.7,23.1,00.0,31.3,24.5,03.4,0000.0,0005.11,0003.34,0003.02
2023-02-23 05:47:00,,0816.0,5.01,0.00,22.7,22.5,00.0,31.3,24.4,03.4,0000.0,0005.00,0003.31,0003.00
2023-02-23 05:48:00,,0816.1,4.98,0.00,22.7,21.9,00.0,31.4,24.2,03.4,0000.0,0004.81,0003.27,0002.98
2023-02-23 05:49:00,,0815.8,4.99,0.00,22.6,21.3,00.0,31.4,24.0,03.4,0000.0,0004.65,0003.24,0002.96
2023-02-23 05:50:00,,0815.7,5.01,0.00,22.5,20.8,00.0,31.3,23.9,03.4,0000.0,0004.52,0003.22,0002.96
2023-02-23 05:51:00,,0815.7,5.00,0.00,22.4,20.5,00.0,31.3,23.8,03.4,0000.0,0005.64,0003.22,0002.96
2023-02-23 05:52:00,,0816.1,5.00,0.00,22.4,20.9,00.0,31.3,23.9,03.4,0000.0,0005.95,0003.23,0002.96
2023-02-23 05:53:00,,0816.1,5.00,0.00,22.5,21.9,00.0,31.2,24.2,03.4,0000.0,0005.81,0003.20,0002.91
2023-02-23 05:54:00,,0816.1,5.01,0.00,22.6,22.8,00.0,31.2,24.4,03.4,0000.0,0005.75,0003.18,0002.85
2023-02-23 05:55:00,,0816.1,4.98,0.00,22.7,23.3,00.0,31.3,24.6,03.3,0000.0,0005.71,0003.17,0002.83
2023-02-23 05:56:00,,0815.9,5.01,0.00,22.7,22.7,00.0,31.3,24.4,03.3,0000.0,0005.75,0003.18,0002.80
2023-02-23 05:57:00,,0815.6,5.03,0.00,22.6,21.9,00.0,31.3,24.2,03.3,0000.0,0005.78,0003.17,0002.74
2023-02-23 05:58:00,,0815.6,5.01,0.00,22.6,21.3,00.0,31.3,24.0,03.4,0000.0,0005.90,0003.17,0002.70
2023-02-23 05:59:00,,0815.7,4.99,0.00,22.5,20.8,00.0,31.3,23.9,03.4,0000.0,0006.29,0003.17,0002.66
